Theta_e
278 278 278 278 278 278 277 277 277 278 277 277 277 277 277 277 277 277 276 276 276 277 278 278 279 281 282 283 284 285 284 284 282 284 288 288 288 288 288 289 289 291 291
277 277 277 277 277 276 276 276 277 276 276 276 276 276 276 276 276 275 274 275 275 275 276 277 278 280 281 282 283 282 283 285 284 282 286 286 286 287 286 286 286 287 287
276 275 275 275 275 274 274 275 275 274 274 274 273 275 275 275 274 274 274 273 274 275 277 277 278 280 280 282 282 282 284 285 284 283 284 287 286 286 286 286 285 284 285
274 274 273 273 273 273 273 273 273 273 271 271 271 272 273 273 273 272 273 273 274 275 277 278 279 279 280 282 282 282 283 284 284 283 283 283 283 284 284 282 281 283 282
272 271 271 272 272 271 271 271 270 269 269 269 270 270 270 271 272 272 272 273 274 275 276 277 278 280 281 282 282 282 283 283 282 282 281 282 282 280 280 281 281 282 282
270 269 270 270 269 269 268 267 267 267 267 267 267 267 268 270 272 273 273 273 274 274 274 277 278 280 281 283 283 285 285 283 281 281 281 279 280 280 281 280 280 279 278
268 268 268 267 267 265 266 265 265 264 265 265 266 266 267 268 271 272 274 273 274 274 275 277 278 280 282 282 284 285 286 285 285 283 281 281 281 281 281 280 280 279 279
267 267 266 266 264 264 263 263 263 264 264 264 265 265 265 267 271 272 274 274 274 275 276 277 278 279 282 283 283 282 282 282 284 283 282 282 282 282 283 282 281 281 281
266 265 265 263 262 262 261 262 263 263 263 263 265 265 265 266 271 272 274 273 274 275 277 278 279 280 281 283 282 281 281 281 283 283 284 284 284 284 284 282 279 277 276
265 264 264 263 262 261 262 262 263 263 263 264 264 265 266 266 270 272 273 273 273 275 277 278 279 280 282 282 281 280 278 279 280 281 282 283 283 284 283 282 280 278 277
265 264 263 263 262 262 263 263 262 262 262 262 263 265 266 268 269 272 274 274 274 275 275 277 278 280 282 282 283 281 280 281 280 280 281 280 281 281 281 282 282 281 278
263 262 262 262 262 263 262 262 262 262 261 262 263 265 268 269 270 271 274 275 276 274 275 276 277 279 280 283 282 283 282 281 281 279 279 279 279 279 279 279 277 278 279
261 260 261 261 262 262 261 261 262 262 262 262 263 265 266 268 269 272 273 275 276 275 274 275 277 279 281 282 282 282 282 281 280 278 277 276 277 276 276 276 275 274 274
259 260 261 261 261 261 262 262 261 262 261 263 264 264 266 267 268 270 272 274 273 273 273 273 275 276 279 279 280 279 278 278 277 276 275 276 275 275 274 274 274 273 272
260 260 260 261 260 260 261 261 261 262 264 264 265 266 265 265 268 272 272 272 271 272 270 271 271 271 271 273 274 275 275 276 275 275 274 274 274 273 273 272 271 270 269
259 260 260 260 260 260 260 260 263 264 266 267 268 267 267 269 271 271 272 273 271 271 267 266 267 267 268 268 269 271 271 271 271 272 272 272 271 271 270 270 269 269 268
258 258 259 259 259 259 259 258 257 260 264 265 266 267 268 269 269 271 270 270 268 267 263 264 264 264 265 266 266 267 267 267 267 269 269 269 269 268 267 268 269 268 268
257 258 258 259 259 258 258 258 258 257 257 258 263 265 266 267 268 269 268 266 263 264 263 262 262 263 263 263 264 264 265 266 266 266 266 266 266 266 266 267 267 266 266
257 258 258 259 258 258 258 258 258 258 258 258 259 262 263 265 267 266 265 261 260 261 261 261 262 262 262 262 263 263 263 264 263 263 264 264 264 264 264 264 265 262 262
258 258 257 258 258 257 258 257 257 257 257 257 258 259 260 263 261 260 261 261 260 260 260 261 261 261 261 261 262 262 262 263 263 263 263 264 264 263 263 262 263 263 263
258 259 257 258 258 258 257 256 256 256 256 257 258 260 265 261 259 259 260 260 260 260 260 260 260 261 261 261 261 261 261 262 262 262 262 263 262 261 262 262 262 262 262
259 258 258 258 258 257 257 256 256 256 257 257 258 259 263 259 259 259 260 260 261 261 261 260 260 261 261 260 260 260 260 260 261 262 262 260 260 261 261 261 261 261 261
258 258 258 257 257 256 256 256 256 256 257 257 258 258 259 259 259 259 259 260 261 261 261 261 260 259 260 260 260 260 259 260 261 262 260 260 261 261 261 261 261 260 261
259 258 257 256 256 255 256 256 256 257 257 257 258 258 258 258 258 259 259 260 260 261 261 261 260 259 259 259 260 261 260 259 260 260 259 259 260 260 260 260 260 260 260
258 257 256 256 255 255 256 256 256 257 257 257 258 258 258 258 258 259 259 260 260 260 260 260 260 260 259 258 258 259 259 259 259 260 259 259 259 259 259 260 260 261 261
257 257 256 256 256 256 256 256 256 257 257 257 257 258 258 258 258 259 259 259 259 260 260 260 260 260 259 259 259 260 259 260 260 257 259 260 260 260 261 261 261 262 262
Wind_Speed
15 15 16 15 16 16 16 17 17 18 19 20 20 20 19 19 18 17 19 20 19 18 18 16 18 16 12 13 12 12 11 12 12 5 9 4 3 3 4 5 4 7 6
15 15 16 17 17 17 17 18 18 19 19 19 21 21 21 20 18 19 19 19 21 20 20 17 18 14 18 16 13 16 13 14 10 14 10 4 5 4 4 5 5 4 4
15 15 17 17 17 18 18 19 19 20 21 20 22 21 20 18 20 20 20 21 20 20 18 18 19 19 18 15 14 13 13 10 9 9 9 3 2 5 7 6 6 5 2
15 16 17 17 18 18 19 20 20 21 22 22 22 21 20 21 20 20 20 19 19 19 19 18 19 19 20 17 14 15 13 10 9 7 3 2 2 2 3 6 5 5 6
15 14 16 18 18 19 19 21 22 21 20 21 21 21 21 19 14 18 19 19 19 19 18 18 19 20 28 24 13 14 13 8 7 6 4 4 4 4 4 3 3 5 5
12 13 14 15 16 16 20 21 21 21 21 20 20 20 20 14 25 26 26 17 18 18 17 17 18 21 21 25 28 26 12 9 10 7 6 6 6 3 4 4 3 3 3
13 13 13 15 15 17 17 18 17 20 19 19 19 19 19 18 27 31 27 16 16 16 17 16 16 14 17 18 15 15 17 18 15 8 8 7 5 5 4 6 5 5 3
12 12 14 14 16 16 16 16 16 16 17 16 17 18 17 15 27 27 27 17 15 16 16 17 15 17 12 12 6 3 1 2 4 5 6 5 6 7 7 6 7 5 3
13 14 15 15 16 16 16 16 16 16 16 16 15 17 17 16 26 26 23 16 15 17 11 12 14 13 15 17 6 5 4 3 4 5 5 3 5 6 8 6 5 6 4
14 15 15 15 15 15 16 16 15 15 15 14 16 16 18 17 23 27 23 12 14 11 13 10 15 15 18 11 1 4 3 3 4 3 4 4 2 2 9 6 6 6 3
17 16 15 14 15 14 15 14 13 14 14 14 16 15 16 15 17 26 25 14 11 10 10 10 9 20 22 13 10 6 6 4 5 5 5 5 4 4 4 4 3 3 4
16 17 16 16 13 12 15 14 14 14 14 14 14 14 12 14 20 21 27 27 20 12 11 10 12 24 19 11 8 11 10 9 6 5 4 3 3 4 5 4 3 2 3
15 14 14 15 14 14 14 15 12 13 12 12 12 12 12 12 12 26 27 26 21 12 12 17 24 23 13 10 8 7 9 7 5 5 4 4 4 4 3 3 4 3 1
14 15 14 13 14 13 11 11 11 11 12 12 12 12 11 11 12 13 12 13 17 13 16 12 16 18 15 14 8 10 7 6 6 5 4 4 3 2 3 3 2 2 2
14 14 13 12 13 12 11 11 11 12 14 13 11 11 12 12 12 22 19 11 11 14 13 9 8 9 10 9 8 9 7 6 6 4 3 2 2 1 1 1 1 0 2
13 11 11 11 11 11 12 12 16 19 24 24 22 17 11 21 25 25 24 24 21 19 7 7 8 8 8 8 8 7 7 7 6 4 3 2 1 1 1 0 1 2 3
12 13 11 11 10 11 11 12 14 16 21 20 22 23 23 22 23 22 24 21 17 12 7 7 7 7 7 7 6 6 5 5 4 3 3 2 2 2 2 3 3 3 4
12 14 10 10 11 11 11 11 11 12 14 13 16 20 21 23 24 20 21 15 9 8 6 7 7 7 6 6 5 5 4 4 3 3 3 2 2 3 4 4 4 4 5
11 9 10 10 10 11 11 11 11 11 11 12 12 14 15 24 21 19 15 7 8 7 7 6 6 6 6 6 5 5 4 4 4 3 3 3 3 3 4 4 5 5 5
10 13 11 10 10 11 11 11 11 11 11 10 10 11 12 12 9 9 8 7 7 7 7 7 6 6 6 5 5 5 5 5 4 3 3 4 4 4 5 5 5 6 7
9 10 12 10 10 10 10 11 11 10 11 11 11 11 24 11 10 9 9 8 7 7 7 7 7 7 6 5 5 5 5 5 4 4 4 4 4 5 5 5 6 7 7
9 10 10 10 10 11 10 11 10 11 11 11 12 12 23 9 9 9 9 9 8 8 7 7 7 7 6 6 6 6 6 6 6 5 5 5 5 6 6 6 6 7 7
9 11 11 10 10 12 10 10 10 10 11 11 11 11 10 9 9 9 9 9 9 8 8 7 8 7 7 6 6 6 7 7 7 5 6 6 6 6 6 7 7 7 7
10 11 11 10 10 10 10 11 11 13 12 11 11 10 10 10 10 11 10 9 9 9 8 7 7 10 8 8 7 7 7 7 6 7 9 7 7 7 7 7 7 9 9
9 10 10 10 10 10 11 11 11 11 11 11 11 10 11 11 10 10 10 9 9 9 10 9 8 10 12 12 11 12 11 12 10 9 6 8 10 10 8 8 8 9 10
9 10 9 9 9 9 10 10 11 11 11 11 11 11 11 11 11 11 10 10 9 9 12 9 10 13 14 12 13 13 11 12 11 12 9 8 8 8 8 9 12 9 11
Wind_Direction
330 327 322 319 318 315 312 311 309 309 309 308 304 302 299 296 296 297 295 295 289 287 286 283 279 283 279 279 277 275 269 269 269 266 268 250 223 232 138 130 130 124 129
327 324 321 319 319 316 316 314 312 312 312 310 309 298 299 294 297 297 297 296 292 288 283 283 279 277 278 274 275 277 279 272 270 272 268 225 202 190 134 116 106 97 139
326 325 322 321 321 320 318 314 318 313 311 311 309 298 297 294 300 298 297 294 288 282 282 285 283 285 284 279 271 271 272 265 259 263 268 231 150 170 146 127 133 115 122
328 325 323 324 324 323 320 320 317 318 315 310 306 305 306 303 301 299 293 295 297 290 286 283 283 285 284 284 275 269 273 258 250 248 247 140 96 92 135 141 144 158 161
325 320 322 324 324 322 320 323 320 319 315 315 315 314 311 304 297 300 302 294 289 287 289 287 286 284 283 281 282 266 260 238 240 221 212 211 164 148 157 127 170 154 139
318 321 321 320 320 320 323 321 322 319 321 319 317 312 311 307 307 309 305 294 300 292 289 287 286 284 282 280 284 264 229 226 225 215 213 219 214 165 135 142 153 159 199
323 323 322 322 323 321 322 319 320 320 317 314 315 314 309 311 313 304 309 297 291 287 284 286 288 287 282 285 256 269 220 232 223 218 212 203 193 186 172 173 177 193 188
323 325 322 328 321 322 321 320 316 314 320 314 319 318 311 305 316 310 312 306 300 295 289 286 293 300 294 297 198 179 132 33 222 181 207 197 204 201 184 191 175 159 119
333 324 327 325 322 323 321 319 316 322 315 320 316 313 312 309 313 316 318 308 298 298 301 297 296 297 303 314 190 197 195 169 163 156 190 204 158 175 169 147 154 164 174
331 328 323 324 322 320 318 318 320 322 318 323 318 314 313 310 313 321 319 318 313 317 308 316 322 325 323 301 127 166 201 205 168 156 172 172 156 173 186 193 170 189 164
330 326 324 327 322 317 319 318 322 318 320 315 315 318 313 314 319 324 322 327 316 315 327 327 323 320 321 298 251 194 215 173 180 169 152 135 130 121 100 100 135 181 191
328 323 325 324 322 324 324 323 324 326 321 320 320 316 323 324 326 326 334 327 343 335 326 337 332 324 308 283 258 195 192 166 167 165 166 152 143 122 102 94 79 53 10
320 318 320 320 321 327 325 326 324 326 324 320 317 326 325 327 325 325 326 328 335 6 355 338 336 331 321 304 231 234 189 158 154 138 125 104 74 65 77 86 85 65 52
319 321 321 323 325 327 324 323 322 323 320 312 323 322 324 323 323 321 327 326 350 358 352 333 345 352 25 29 81 84 81 79 87 90 87 84 80 81 78 43 62 38 315
321 321 323 323 325 322 322 320 317 312 310 319 317 320 322 319 322 328 330 353 349 352 343 335 354 3 11 19 41 52 60 70 82 81 87 91 99 106 104 83 61 63 268
321 326 322 321 323 322 322 317 313 316 321 320 323 323 320 316 326 327 343 341 349 352 340 351 359 2 11 16 20 38 42 50 46 63 69 56 344 301 299 262 280 274 287
318 317 319 317 322 323 324 322 320 321 320 323 326 330 324 330 331 331 339 350 345 0 357 357 359 0 2 8 14 15 26 30 10 34 27 13 334 289 262 266 268 265 261
311 313 311 318 318 320 319 316 312 313 317 321 327 326 332 332 329 343 342 351 344 356 355 350 349 351 352 355 357 1 357 359 10 358 347 345 312 297 290 278 274 275 275
315 317 323 313 312 315 309 313 311 310 308 309 315 323 327 323 325 343 350 347 340 336 339 335 337 336 334 333 332 329 333 330 334 321 313 305 301 291 282 282 281 267 272
317 312 313 314 315 313 315 316 314 312 311 310 313 318 318 312 341 336 334 333 330 326 324 320 319 318 316 314 315 315 310 308 307 297 292 288 281 274 276 279 278 284 280
317 317 321 312 316 315 314 312 311 308 307 309 309 314 320 342 323 320 323 322 319 315 313 310 307 305 303 301 296 292 290 290 287 279 275 275 270 269 264 267 271 269 270
321 321 317 316 315 314 314 309 306 307 306 308 311 313 324 323 318 316 314 314 313 308 299 298 295 291 292 291 292 288 282 279 279 270 269 266 261 257 253 258 262 263 266
320 320 320 317 316 313 313 312 309 309 307 308 310 313 317 316 314 313 311 307 305 303 298 289 286 285 281 272 268 262 262 263 267 271 269 269 266 264 260 262 263 264 265
324 322 320 318 315 315 313 314 309 309 310 309 311 312 313 312 309 308 306 303 300 298 294 287 273 273 277 271 271 262 253 254 256 254 249 254 259 259 255 258 260 261 265
324 323 322 319 317 315 312 313 312 312 313 313 313 312 311 309 306 304 303 301 298 294 291 288 278 276 271 265 259 261 261 257 252 244 241 242 249 253 253 255 260 265 265
325 323 319 317 315 313 313 314 314 314 314 314 312 310 309 307 304 303 303 301 298 296 295 285 278 276 274 272 267 262 254 254 246 233 232 237 241 245 247 251 257 259 263